Home   Weather   Langfang   Past weeks

Flag for China Past Weather in Langfang, Hebei, China — Yesterday and Last 2 Weeks

Now
37 °F

Haze.


Feels Like: 35 °F
Forecast: 16 / 33 °F
Wind: 3 mph from North

Location: Beijing Airport

Current Time: Jan 17, 2017 at 2:58:48 pm

Latest Report: Jan 17, 2017 at 2:00 pm


Visibility: 3 mi

Pressure: 30.36 "Hg

Humidity: 45%

Dew Point: 18 °F

Location of LangfangLocation

Past Weather in Langfang — Graph

°F

Langfang Temperature Yesterday

Maximum temperature yesterday: 30 °F (at 11:30 am)
Minimum temperature yesterday: 27 °F (at 12:00 am)
Average temperature yesterday: 28 °F

High & Low Weather Summary for the Past Weeks

 TemperatureHumidityPressure
High48 °F (Jan 3, 3:00 pm)100% (Jan 4, 3:00 am)30.63 "Hg (Jan 4, 3:00 am)
Low12 °F (Jan 11, 7:30 am)10% (Jan 13, 5:00 pm)30.04 "Hg (Jan 12, 4:00 pm)
Average31 °F57%30.33 "Hg
* Reported Jan 2 1:00 pm — Jan 17 1:30 pm, Langfang, Weather by CustomWeather, © 2017

Note: Actual official high and low records may vary slightly from our data, if they occured in-between our weather recording intervals... More about our weather records

Advertising

Langfang Weather History for the Previous 24 Hours

Scroll right to see more
 ConditionsComfort  
Time TempWeatherWind HumidityBarometerVisibility
1:30 pm
Tue, Jan 17
36 °FHaze.3 mph48%30.39 "Hg2 mi
1:00 pm34 °FHaze.3 mph56%30.39 "Hg2 mi
12:30 pm34 °FHaze.3 mph56%30.42 "Hg2 mi
12:00 pm34 °FHaze.3 mph56%30.42 "Hg2 mi
11:30 am32 °FHaze.1 mph64%30.45 "Hg2 mi
11:00 am30 °FHaze.3 mph75%30.45 "Hg2 mi
10:30 am30 °FHaze.6 mph75%30.48 "Hg2 mi
10:00 am30 °FHaze.1 mph75%30.48 "Hg2 mi
9:30 am28 °FHaze.1 mph80%30.45 "Hg2 mi
9:00 am28 °FHaze.1 mph80%30.45 "Hg2 mi
8:30 am28 °FHaze.1 mph80%30.45 "Hg2 mi
8:00 am28 °FHaze.No wind80%30.45 "Hg2 mi
7:30 am28 °FHaze.1 mph74%30.42 "Hg2 mi
7:00 am28 °FHaze.1 mph80%30.42 "Hg2 mi
6:30 am28 °FHaze.1 mph74%30.42 "Hg2 mi
6:00 am28 °FHaze.1 mph74%30.42 "Hg2 mi
5:30 am28 °FHaze.1 mph74%30.42 "Hg2 mi
5:00 am28 °FHaze.1 mph74%30.42 "Hg2 mi
4:30 am28 °FHaze.1 mph74%30.42 "Hg2 mi
4:00 am28 °FHaze.1 mph74%30.45 "Hg2 mi
3:30 am28 °FHaze.3 mph74%30.45 "Hg2 mi
3:00 am28 °FHaze.1 mph74%30.45 "Hg2 mi
2:30 am28 °FHaze.No wind74%30.45 "Hg2 mi
2:00 am28 °FHaze.1 mph74%30.45 "Hg2 mi
1:30 am28 °FHaze.1 mph74%30.45 "Hg2 mi
1:00 am28 °FHaze.1 mph74%30.48 "Hg2 mi
12:30 am28 °FHaze.1 mph74%30.48 "Hg2 mi
12:00 am28 °FHaze.1 mph74%30.48 "Hg2 mi
11:30 pm
Mon, Jan 16
28 °FHaze.1 mph74%30.48 "Hg2 mi
11:00 pm28 °FHaze.1 mph74%30.48 "Hg2 mi
10:30 pm28 °FHaze.1 mph74%30.48 "Hg2 mi
10:00 pm28 °FOvercast.1 mph74%30.48 "Hg2 mi
9:30 pm30 °FOvercast.1 mph69%30.48 "Hg2 mi
9:00 pm30 °FOvercast.3 mph69%30.48 "Hg2 mi
8:30 pm30 °FOvercast.1 mph69%30.48 "Hg2 mi
8:00 pm30 °FOvercast.1 mph69%30.48 "Hg2 mi
7:30 pm30 °FOvercast.1 mph69%30.48 "Hg2 mi
7:00 pm30 °FOvercast.1 mph69%30.48 "Hg2 mi
6:30 pm30 °FOvercast.1 mph69%30.48 "Hg2 mi
6:00 pm30 °FOvercast.1 mph69%30.48 "Hg2 mi
5:30 pm30 °FOvercast.1 mph69%30.45 "Hg2 mi
5:00 pm30 °FOvercast.1 mph69%30.45 "Hg2 mi
4:30 pm30 °FOvercast.1 mph69%30.45 "Hg2 mi
4:00 pm30 °FPartly sunny.1 mph69%30.45 "Hg2 mi
3:30 pm30 °FPartly sunny.1 mph69%30.45 "Hg2 mi
3:00 pm30 °FPartly sunny.3 mph69%30.45 "Hg2 mi
2:30 pm30 °FPartly sunny.3 mph69%30.45 "Hg2 mi
2:00 pm30 °FPartly sunny.3 mph69%30.45 "Hg2 mi
Weather by CustomWeather, © 2017

See weather overviewHow to use our weather pages